Location: *
(49.5667°N, 1.3667°W)
Time: 22:55:11
(UTC+00:00)

Cosmos 2227 Rocket - Pass Details

Date: 20 September 2019
Orbit: 837 x 847 km, 71.0° (Epoch: 21 October)

Event Time Altitude Azimuth Distance (km) Brightness Sun altitude
Rises 22:00:35 0° 254° (WSW) 3,394 5.6 -33.5°
Reaches altitude 10° 22:03:35 10° 269° (W) 2,465 5.0 -33.8°
Maximum altitude 22:07:56 22° 320° (NW) 1,757 4.4 -34.2°
Drops below altitude 10° 22:12:20 10° 11° (N) 2,478 5.1 -34.6°
Sets 22:15:22 0° 26° (NNE) 3,418 5.7 -34.8°
